This is the latest recevied weather packets stored in our database for station/object HB3YKO-13. If no packets are shown the sender has not sent any weather packets the latest 10 day(s).
| Time | Temp. | Humidity | Pressure | Rain* | Wind** | Luminosity | Snow |
|---|---|---|---|---|---|---|---|
| 1777704293 | -17.78° C | 47% | 0 hPa | 0 mm | - | - | - |
| 1777703993 | -17.78° C | 47% | 0 hPa | 0 mm | - | - | - |
| 1777703693 | -17.78° C | 48% | 0 hPa | 0 mm | - | - | - |
| 1777703393 | -17.78° C | 48% | 0 hPa | 0 mm | - | - | - |
| 1777703093 | -17.78° C | 48% | 0 hPa | 0 mm | - | - | - |
| 1777702793 | -17.78° C | 49% | 0 hPa | 0 mm | - | - | - |
| 1777702493 | -17.78° C | 50% | 0 hPa | 0 mm | - | - | - |
| 1777702193 | -17.78° C | 49% | 0 hPa | 0 mm | - | - | - |
| 1777701893 | -17.78° C | 49% | 0 hPa | 0 mm | - | - | - |
| 1777701593 | -1.67° C | 49% | 0 hPa | 0 mm | - | - | - |
| 1777701293 | -1.67° C | 48% | 0 hPa | 0 mm | - | - | - |
| 1777700993 | -1.67° C | 50% | 0 hPa | 0 mm | - | - | - |
| 1777700693 | -1.67° C | 53% | 0 hPa | 0 mm | - | - | - |
| 1777700393 | -1.67° C | 54% | 0 hPa | 0 mm | - | - | - |
| 1777700093 | -2.22° C | 54% | 0 hPa | 0 mm | - | - | - |
| 1777699793 | -3.33° C | 56% | 0 hPa | 0 mm | - | - | - |
| 1777699493 | -3.89° C | 57% | 0 hPa | 0 mm | - | - | - |
| 1777699193 | -3.33° C | 57% | 0 hPa | 0 mm | - | - | - |
| 1777698893 | -3.33° C | 55% | 0 hPa | 0 mm | - | - | - |
| 1777698593 | -3.33° C | 56% | 0 hPa | 0 mm | - | - | - |
| 1777698293 | -3.89° C | 56% | 0 hPa | 0 mm | - | - | - |
| 1777697993 | -3.89° C | 57% | 0 hPa | 0 mm | - | - | - |
| 1777697693 | -3.89° C | 55% | 0 hPa | 0 mm | - | - | - |
| 1777697393 | -3.33° C | 54% | 0 hPa | 0 mm | - | - | - |
| 1777697093 | -3.89° C | 55% | 0 hPa | 0 mm | - | - | - |
* Rain latest hour (hover to see other rain measurements)
** Current wind speed in m/s (hover to see current wind gust speed)